TimeCDT,TemperatureF,Dew PointF,Humidity,Sea Level PressureIn,VisibilityMPH,Wind Direction,Wind SpeedMPH,Gust SpeedMPH,PrecipitationIn,Events,Conditions,WindDirDegrees,DateUTC
12:54 AM,41.0,30.9,67,30.02,10.0,WNW,4.6,-,N/A,,Clear,290,2011-10-15 05:54:00
1:54 AM,39.9,28.9,65,30.03,10.0,WSW,4.6,-,N/A,,Clear,240,2011-10-15 06:54:00
2:54 AM,39.0,30.0,70,30.03,10.0,West,3.5,-,N/A,,Clear,270,2011-10-15 07:54:00
4:54 AM,43.0,30.9,62,30.03,10.0,WSW,4.6,-,N/A,,Overcast,250,2011-10-15 09:54:00
5:54 AM,42.1,30.9,65,30.03,10.0,WNW,3.5,-,N/A,,Scattered Clouds,300,2011-10-15 10:54:00
6:54 AM,39.9,30.0,68,30.04,10.0,Calm,Calm,-,N/A,,Clear,0,2011-10-15 11:54:00
8:54 AM,43.0,32.0,65,30.06,10.0,Calm,Calm,-,N/A,,Clear,0,2011-10-15 13:54:00
9:54 AM,48.9,32.0,52,30.05,10.0,SE,3.5,-,N/A,,Clear,140,2011-10-15 14:54:00
10:54 AM,57.0,33.1,40,30.03,10.0,Variable,5.8,-,N/A,,Clear,0,2011-10-15 15:54:00
11:54 AM,64.0,26.1,24,30.00,10.0,SSW,11.5,-,N/A,,Clear,210,2011-10-15 16:54:00
12:54 PM,66.9,25.0,21,29.96,10.0,South,8.1,-,N/A,,Clear,180,2011-10-15 17:54:00
1:54 PM,68.0,28.0,22,29.90,10.0,South,11.5,21.9,N/A,,Clear,190,2011-10-15 18:54:00
2:54 PM,71.1,30.9,23,29.86,10.0,SSW,12.7,23.0,N/A,,Clear,200,2011-10-15 19:54:00
3:54 PM,72.0,33.1,24,29.83,10.0,SSW,12.7,21.9,N/A,,Clear,210,2011-10-15 20:54:00
4:54 PM,72.0,34.0,25,29.80,10.0,South,12.7,-,N/A,,Clear,170,2011-10-15 21:54:00
5:54 PM,72.0,36.0,27,29.77,10.0,South,10.4,-,N/A,,Clear,180,2011-10-15 22:54:00
6:54 PM,62.1,37.0,39,29.77,7.0,SE,6.9,-,N/A,,Clear,140,2011-10-15 23:54:00
7:54 PM,57.9,39.0,49,29.76,10.0,South,4.6,-,N/A,,Clear,180,2011-10-16 00:54:00
8:54 PM,51.1,37.0,59,29.75,10.0,Calm,Calm,-,N/A,,Clear,0,2011-10-16 01:54:00
9:54 PM,48.0,36.0,63,29.74,10.0,Calm,Calm,-,N/A,,Clear,0,2011-10-16 02:54:00
10:54 PM,48.0,37.0,66,29.73,10.0,Calm,Calm,-,N/A,,Clear,0,2011-10-16 03:54:00